This demonstration page uses our WeatherBlox Daily Observations layout. Learn more.

38.88101, -77.10428

Hourly Observations for August 10, 2016

Temp ( °F °C ) Dew Point ( °F °C ) Humidity (%) Winds ( mph kmh ) Pressure ( in mb ) Visibility ( mi km ) Precip ( " mm )
12:52 am 00:52 Cloudy 78 25.6 75 23.9 90 90 S 8 13 30.21 1023 8 12.874752 0 0
1:05 am 01:05 Partly Cloudy 78 25.6 75 23.9 90 90 S 8 13 30.18 1022 8 12.874752 0 0
1:48 am 01:48 Cloudy 77 25 75 24 94 94 S 5 7 30.18 1022 7 11.265408 0 0
1:52 am 01:52 Cloudy 77 25 75 23.9 94 94 S 3 6 30.18 1022 7 11.265408 0 0
2:11 am 02:11 Mostly Cloudy 77 25 75 23.9 94 94 SE 5 7 30.18 1022 7 11.265408 0 0
2:37 am 02:37 Cloudy 78 25.6 75 23.9 90 90 SSE 3 6 30.18 1022 7 11.265408 0 0
2:52 am 02:52 Cloudy 78 25.6 75 23.9 90 90 S 5 7 30.18 1022 7 11.265408 0 0
3:18 am 03:18 Cloudy 78 25.6 75 23.9 90 90 S 8 13 30.18 1022 8 12.874752 0 0
3:52 am 03:52 Cloudy 78 25.6 75 23.9 90 90 S 7 11 30.15 1021 7 11.265408 0 0
4:18 am 04:18 Cloudy 78 25.6 75 23.9 90 90 S 7 11 30.15 1021 8 12.874752 0 0
4:38 am 04:38 Cloudy 78 25.6 75 23.9 90 90 S 7 11 30.15 1021 7 11.265408 0 0
4:48 am 04:48 Cloudy 79 26 75 24 89 89 S 6 9 30.15 1021 7 11.265408 0 0
4:52 am 04:52 Cloudy 78 25.6 75 23.9 90 90 S 8 13 30.15 1021 8 12.874752 0 0
5:04 am 05:04 Cloudy 78 25.6 75 23.9 90 90 S 7 11 30.15 1021 8 12.874752 0 0
5:34 am 05:34 Cloudy 78 25.6 75 23.9 90 90 SSW 8 13 30.15 1021 8 12.874752 0 0
5:45 am 05:45 Cloudy 78 25.6 75 23.9 90 90 S 8 13 30.15 1021 8 12.874752 0 0
5:52 am 05:52 Cloudy 78 25.6 75 23.9 90 90 S 9 15 30.15 1021 8 12.874752 0 0
6:52 am 06:52 Cloudy 78 25.6 75 23.9 90 90 S 5 7 30.18 1022 7 11.265408 0 0
7:52 am 07:52 Cloudy 78 25.6 74 23.3 87 87 SW 12 19 30.18 1022 7 11.265408 0 0
7:59 am 07:59 Mostly Cloudy 79 26.1 74 23.3 85 85 SW 8 13 30.18 1022 7 11.265408 0 0
8:52 am 08:52 Cloudy 81 27.2 74 23.3 79 79 SSW 10 17 30.21 1023 9 14.484096 0 0
9:25 am 09:25 Mostly Cloudy 82 27.8 74 23.3 77 77 SSW 10 17 30.21 1023 10 16.09344 0 0
9:40 am 09:40 Mostly Cloudy 84 28.9 74 23.3 72 72 S 10 17 30.21 1023 10 16.09344 0 0
9:52 am 09:52 Mostly Cloudy 84 28.9 74 23.3 72 72 SSW 10 17 30.21 1023 10 16.09344 0 0
10:00 am 10:00 Mostly Cloudy 85 29.4 74 23.3 70 70 S 13 20 30.21 1023 10 16.09344 0 0
10:52 am 10:52 Mostly Cloudy 86 30 74 23.3 67 67 S 13 20 30.21 1023 10 16.09344 0 0
11:52 am 11:52 Mostly Cloudy 87 30.6 75 23.9 67 67 S 15 24 30.18 1022 10 16.09344 0 0
12:52 pm 12:52 Cloudy 92 33.3 74 23.3 56 56 S 12 19 30.18 1022 10 16.09344 0 0
1:52 pm 13:52 Cloudy 92 33.3 74 23.3 56 56 S 16 26 30.15 1021 10 16.09344 0 0
2:52 pm 14:52 Mostly Cloudy 94 34.4 72 22.2 49 49 SW 13 20 30.15 1021 10 16.09344 0 0
3:52 pm 15:52 Mostly Cloudy 94 34.4 71 21.7 48 48 SSW 16 26 30.12 1020 10 16.09344 0 0
4:52 pm 16:52 Mostly Cloudy 93 33.9 71 21.7 49 49 SSW 20 31 30.12 1020 10 16.09344 0 0
5:52 pm 17:52 Partly Cloudy 92 33.3 71 21.7 51 51 SSW 16 26 30.12 1020 10 16.09344 0 0
6:52 pm 18:52 Partly Cloudy 90 32.2 71 21.7 54 54 S 15 24 30.12 1020 10 16.09344 0 0
7:52 pm 19:52 Partly Cloudy 87 30.6 72 22.2 61 61 SSW 13 20 30.12 1020 10 16.09344 0 0
8:52 pm 20:52 Partly Cloudy 86 30 72 22.2 63 63 S 10 17 30.12 1020 10 16.09344 0 0
9:52 pm 21:52 Cloudy 84 28.9 75 23.9 74 74 S 8 13 30.15 1021 10 16.09344 0 0
10:52 pm 22:52 Cloudy 83 28.3 74 23.3 74 74 S 10 17 30.15 1021 10 16.09344 0 0
11:52 pm 23:52 Mostly Cloudy 82 27.8 75 23.9 79 79 S 8 13 30.15 1021 10 16.09344 0 0

Powered by AerisWeather